Mojave, CA

2:02 AM PDT on March 24, 2017 (GMT -0700)
Mojave

Weather History for KMHV - October, 2012

Change the Weather History Date:

Thursday, October 18, 2012

  Actual Average Record
Temperature  
Mean Temperature 72 °F -  
Max Temperature 84 °F 77 °F 92 °F (1988)
Min Temperature 59 °F 46 °F 33 °F (1971)
Cooling Degree Days 6    
Growing Degree Days 22 (Base 50)    
Moisture  
Dew Point 27 °F    
Average Humidity 21    
Maximum Humidity 34    
Minimum Humidity 9    
Precipitation  
Precipitation 0.00 in - - ()
Sea Level Pressure  
Sea Level Pressure 30.08 in    
Wind  
Wind Speed 5 mph (NNW)    
Max Wind Speed 12 mph    
Max Gust Speed -    
Visibility 10 miles    
Events      
Averages and records for this station are not official NWS values.
T = Trace of Precipitation, MM = Missing Value Source: NWS Daily Summary

Daily Weather History Graph

Daily Weather History Graph

Search for Another Location

Airport or City:

Trip Planner

Search our weather history database for the weather conditions in past years. The results will help you decide how hot, cold, wet, or windy it might be!

Date:

Astronomy

Oct. 18, 2012 Rise Set
Actual Time 7:01 AM PDT 6:13 PM PDT
Civil Twilight 6:35 AM PDT 6:38 PM PDT
Nautical Twilight 6:06 AM PDT 7:08 PM PDT
Astronomical Twilight 5:37 AM PDT 7:37 PM PDT
Moon 10:40 AM PDT (10/18) 9:00 PM PDT (10/18)
Length of Visible Light 12h 02m
Length of Day
11h 11m
Waxing Crescent, 15% of the Moon is Illuminated
Oct 18
Waxing Crescent
Oct 21
First Quarter
Oct 29
Full
Nov 6
Last Quarter
Nov 13
New

Hourly Weather History & Observations

Time (PDT) Temp. Dew Point Humidity Pressure Visibility Wind Dir Wind Speed Gust Speed Precip Events Conditions
12:15 AM 66.2 °F 30.2 °F 26% 30.04 in 10.0 mi NNW 6.9 mph - N/A   Clear
12:35 AM 66.2 °F 30.2 °F 26% 30.05 in 9.0 mi NNW 8.1 mph - N/A   Clear
12:55 AM 64.4 °F 30.2 °F 28% 30.05 in 10.0 mi NNW 8.1 mph - N/A   Clear
1:15 AM 64.4 °F 30.2 °F 28% 30.06 in 10.0 mi NW 6.9 mph - N/A   Clear
1:35 AM 66.2 °F 32.0 °F 28% 30.06 in 10.0 mi NW 8.1 mph - N/A   Clear
1:55 AM 64.4 °F 30.2 °F 28% 30.06 in 10.0 mi NNW 6.9 mph - N/A   Clear
2:15 AM 64.4 °F 30.2 °F 28% 30.07 in 8.0 mi NW 4.6 mph - N/A   Clear
2:35 AM 62.6 °F 30.2 °F 30% 30.06 in 10.0 mi NNW 3.5 mph - N/A   Clear
3:15 AM 62.6 °F 30.2 °F 30% 30.06 in 10.0 mi NNW 6.9 mph - N/A   Clear
3:35 AM 62.6 °F 30.2 °F 30% 30.06 in 7.0 mi NNW 6.9 mph - N/A   Clear
3:55 AM 59.0 °F 30.2 °F 34% 30.06 in 10.0 mi NW 5.8 mph - N/A   Clear
4:15 AM 59.0 °F 30.2 °F 34% 30.06 in 10.0 mi NW 5.8 mph - N/A   Clear
4:35 AM 59.0 °F 30.2 °F 34% 30.07 in 10.0 mi NW 5.8 mph - N/A   Clear
4:55 AM 59.0 °F 30.2 °F 34% 30.07 in 10.0 mi NNW 6.9 mph - N/A   Clear
5:15 AM 60.8 °F 30.2 °F 31% 30.07 in 10.0 mi NNW 6.9 mph - N/A   Clear
5:55 AM 62.6 °F 30.2 °F 30% 30.07 in 10.0 mi NNW 9.2 mph - N/A   Clear
6:15 AM 62.6 °F 28.4 °F 27% 30.08 in 10.0 mi NNW 9.2 mph - N/A   Clear
6:35 AM 62.6 °F 28.4 °F 27% 30.09 in 10.0 mi NNW 5.8 mph - N/A   Clear
7:15 AM 60.8 °F 28.4 °F 29% 30.10 in 10.0 mi Calm Calm - N/A   Clear
7:35 AM 62.6 °F 28.4 °F 27% 30.10 in 10.0 mi Calm Calm - N/A   Clear
7:55 AM 62.6 °F 28.4 °F 27% 30.11 in 10.0 mi Calm Calm - N/A   Clear
8:15 AM 66.2 °F 30.2 °F 26% 30.11 in 10.0 mi Calm Calm - N/A   Clear
8:35 AM 68.0 °F 30.2 °F 24% 30.12 in 10.0 mi Calm Calm - N/A   Clear
9:15 AM 69.8 °F 32.0 °F 25% 30.14 in 10.0 mi SSE 3.5 mph - N/A   Clear
9:35 AM 71.6 °F 32.0 °F 23% 30.15 in 10.0 mi Calm Calm - N/A   Clear
9:55 AM 73.4 °F 32.0 °F 22% 30.15 in 10.0 mi Calm Calm - N/A   Clear
10:15 AM 75.2 °F 32.0 °F 21% 30.15 in 10.0 mi SE 3.5 mph - N/A   Clear
10:35 AM 77.0 °F 32.0 °F 19% 30.14 in 10.0 mi Calm Calm - N/A   Clear
10:55 AM 77.0 °F 26.6 °F 16% 30.14 in 10.0 mi ESE 5.8 mph - N/A   Clear
11:15 AM 78.8 °F 24.8 °F 14% 30.14 in 10.0 mi East 5.8 mph - N/A   Clear
11:35 AM 80.6 °F 23.0 °F 12% 30.14 in 10.0 mi ENE 6.9 mph - N/A   Clear
11:55 AM 80.6 °F 23.0 °F 12% 30.14 in 10.0 mi ESE 8.1 mph - N/A   Clear
12:15 PM 80.6 °F 23.0 °F 12% 30.13 in 10.0 mi ESE 5.8 mph - N/A   Clear
12:35 PM 82.4 °F 24.8 °F 12% 30.12 in 10.0 mi ESE 6.9 mph - N/A   Clear
12:55 PM 80.6 °F 24.8 °F 13% 30.12 in 10.0 mi ENE 6.9 mph - N/A   Clear
1:15 PM 82.4 °F 24.8 °F 12% 30.11 in 10.0 mi East 8.1 mph - N/A   Clear
1:35 PM 82.4 °F 23.0 °F 11% 30.10 in 10.0 mi East 9.2 mph - N/A   Clear
1:55 PM 82.4 °F 23.0 °F 11% 30.09 in 10.0 mi East 5.8 mph - N/A   Clear
2:15 PM 84.2 °F 23.0 °F 11% 30.08 in 10.0 mi NE 5.8 mph - N/A   Clear
2:35 PM 84.2 °F 21.2 °F 10% 30.08 in 10.0 mi ESE 3.5 mph - N/A   Clear
2:55 PM 84.2 °F 21.2 °F 10% 30.07 in 10.0 mi Calm Calm - N/A   Clear
3:15 PM 84.2 °F 21.2 °F 10% 30.07 in 10.0 mi Calm Calm - N/A   Clear
3:35 PM 84.2 °F 23.0 °F 11% 30.07 in 10.0 mi Calm Calm - N/A   Clear
3:55 PM 84.2 °F 23.0 °F 11% 30.07 in 10.0 mi Calm Calm - N/A   Clear
4:15 PM 84.2 °F 21.2 °F 10% 30.06 in 10.0 mi SSW 4.6 mph - N/A   Clear
4:55 PM 84.2 °F 19.4 °F 9% 30.06 in 10.0 mi SSE 4.6 mph - N/A   Clear
5:15 PM 84.2 °F 19.4 °F 9% 30.05 in 10.0 mi Calm Calm - N/A   Clear
5:35 PM 82.4 °F 19.4 °F 10% 30.05 in 10.0 mi SE 3.5 mph - N/A   Clear
5:55 PM 82.4 °F 19.4 °F 10% 30.05 in 10.0 mi Calm Calm - N/A   Clear
6:15 PM 80.6 °F 19.4 °F 10% 30.05 in 10.0 mi Calm Calm - N/A   Clear
6:55 PM 71.6 °F 19.4 °F 14% 30.06 in 9.0 mi NW 5.8 mph - N/A   Clear
7:15 PM 69.8 °F 19.4 °F 15% 30.06 in 10.0 mi NW 6.9 mph - N/A   Clear
7:35 PM 68.0 °F 19.4 °F 16% 30.06 in 10.0 mi NW 3.5 mph - N/A   Clear
7:55 PM 68.0 °F 19.4 °F 16% 30.06 in 10.0 mi NW 6.9 mph - N/A   Clear
8:15 PM 68.0 °F 21.2 °F 17% 30.06 in 10.0 mi WNW 3.5 mph - N/A   Clear
8:55 PM 71.6 °F 33.8 °F 25% 30.06 in 10.0 mi West 10.4 mph - N/A   Clear
9:35 PM 69.8 °F 35.6 °F 28% 30.06 in 10.0 mi West 6.9 mph - N/A   Clear
9:55 PM 68.0 °F 33.8 °F 28% 30.07 in 10.0 mi West 8.1 mph - N/A   Clear
10:15 PM 69.8 °F 32.0 °F 25% 30.07 in 10.0 mi West 11.5 mph - N/A   Clear
10:35 PM 71.6 °F 32.0 °F 23% 30.07 in 10.0 mi WNW 11.5 mph - N/A   Clear
10:55 PM 73.4 °F 32.0 °F 22% 30.07 in 10.0 mi WNW 10.4 mph - N/A   Clear
11:15 PM 71.6 °F 32.0 °F 23% 30.07 in 10.0 mi WNW 4.6 mph - N/A   Clear
11:35 PM 69.8 °F 32.0 °F 25% 30.07 in 10.0 mi NNE 3.5 mph - N/A   Clear
11:55 PM 68.0 °F 28.4 °F 23% 30.07 in 10.0 mi Calm Calm - N/A   Clear